EHI
0 2 4 5 4 4 5 5 5 5 5 3 1 0 0 0 1 2 2 2 3 2 2 2 3 4 5 4 3 2 1 0 0 0 0 1 2 2 2 2 1 0 0
0 1 4 4 4 5 5 5 5 5 4 2 1 0 0 0 2 2 2 2 2 1 1 2 3 3 3 3 3 2 1 0 0 0 0 0 1 1 1 2 2 1 0
0 1 2 4 5 6 7 7 7 4 2 1 1 0 0 0 2 3 1 1 1 0 0 1 2 2 2 3 3 2 1 0 0 0 0 0 0 1 2 3 3 2 1
0 0 1 2 3 5 8 9 8 5 1 1 1 1 0 0 1 2 1 0 0 0 0 1 1 1 1 3 3 2 1 0 0 0 0 0 0 1 2 3 2 1 0
0 0 1 1 2 3 7 9 8 4 1 2 2 2 1 2 1 1 0 0 0 0 0 0 0 1 2 3 3 1 0 0 0 0 0 0 0 1 2 2 1 0 0
0 0 1 1 1 3 5 7 6 4 2 2 3 3 3 4 3 1 0 0 1 1 1 1 1 2 3 3 2 1 0 0 0 0 0 0 0 0 1 1 1 1 0
0 0 1 1 1 2 4 5 4 2 2 3 4 4 4 4 3 1 0 0 1 2 2 1 2 3 3 3 1 0 0 0 0 0 0 0 0 0 0 1 1 1 1
0 1 1 1 0 1 3 3 2 1 2 3 4 4 4 4 2 1 0 0 1 1 1 1 2 3 3 2 1 0 0 0 0 0 0 0 0 0 0 0 1 1 1
0 1 1 1 0 0 1 1 1 1 1 3 4 3 3 3 1 0 0 0 0 0 0 1 2 3 3 2 1 0 0 0 0 0 0 0 0 0 0 0 1 2 2
0 0 0 0 0 0 0 1 1 0 1 1 2 2 2 1 0 0 0 0 0 0 0 1 2 3 2 1 1 1 0 0 0 0 0 0 0 0 0 1 2 3 3
0 0 0 0 0 0 0 0 0 0 0 0 1 1 1 0 0 0 0 0 0 0 0 1 2 1 1 1 1 1 0 0 0 0 0 0 0 0 0 1 2 3 3
1 0 0 0 0 0 0 1 1 1 1 0 0 0 1 1 1 0 0 0 0 0 0 1 1 0 0 0 1 1 0 0 0 0 0 0 0 0 0 1 2 3 3
2 1 0 0 0 0 1 2 3 3 3 1 1 2 3 3 2 1 0 0 0 0 0 0 0 0 0 0 0 0 0 0 0 0 1 2 1 0 0 1 2 3 3
2 1 1 0 1 1 2 3 2 2 2 1 2 3 4 4 3 2 1 1 0 0 0 0 0 0 0 0 0 0 0 0 0 0 1 3 4 2 1 0 1 2 2
1 2 2 2 2 3 4 4 2 2 1 1 2 4 4 3 2 1 2 1 0 0 0 0 0 0 0 0 0 0 0 0 0 0 1 4 6 5 2 0 0 1 1
2 3 3 4 3 3 3 4 3 3 2 1 2 3 3 3 1 0 1 1 0 0 0 0 0 0 0 0 0 0 0 0 0 0 0 3 6 7 4 2 1 1 0
3 3 4 4 4 3 2 2 3 4 4 4 4 3 2 2 2 1 1 0 0 1 1 0 0 0 0 0 0 0 0 0 0 0 0 1 4 5 5 4 3 3 2
5 6 6 6 5 5 3 3 5 7 8 7 6 4 1 1 1 2 2 1 1 2 1 0 0 0 0 0 0 0 0 0 0 0 0 1 2 3 4 5 4 3 3
8 11 12 11 9 8 6 4 4 7 8 7 6 3 1 0 0 1 2 3 2 2 1 0 0 0 0 0 0 0 0 0 0 0 0 0 1 2 3 4 3 3 3
10 15 19 18 15 13 8 4 3 4 4 5 4 3 1 0 0 1 2 3 2 1 0 0 0 0 1 0 0 0 0 0 0 0 0 0 0 1 2 2 2 3 4
10 15 21 23 21 18 13 7 4 2 3 3 3 2 0 0 0 0 2 2 1 0 0 0 0 0 0 0 0 0 0 0 0 0 1 1 0 0 1 1 1 2 4
12 14 18 22 23 21 17 12 7 3 2 2 2 2 1 1 0 0 1 2 1 0 0 0 0 0 0 0 1 1 1 0 0 1 2 2 1 1 1 1 2 3 4
11 11 14 18 21 21 19 14 9 6 4 3 3 3 3 2 1 0 1 1 0 0 0 0 0 0 0 0 2 2 1 0 1 2 3 2 1 2 2 2 2 4 6
10 11 13 16 18 18 17 15 12 9 7 5 4 4 4 3 3 2 1 2 1 1 0 0 1 2 2 2 2 3 2 2 2 3 3 2 1 2 3 3 3 4 7
11 13 15 17 17 17 17 17 16 13 9 7 6 5 4 4 4 4 4 5 5 3 1 1 2 4 4 4 3 4 4 4 5 5 4 3 2 2 3 3 3 5 6
13 14 16 19 19 19 18 19 19 15 9 7 7 5 4 4 4 5 6 7 7 4 2 2 3 4 4 4 4 4 5 6 7 6 5 4 3 2 2 2 2 4 5
Wind_Speed
3 5 9 7 8 9 10 11 12 14 14 15 16 16 16 17 17 17 17 17 17 17 17 17 17 16 15 15 14 14 13 13 13 14 13 14 14 13 13 12 11 12 14
4 6 9 8 9 10 10 11 13 14 14 16 16 17 17 16 16 16 17 17 17 17 17 16 16 15 15 14 14 14 13 13 13 13 13 13 13 12 11 9 7 11 13
5 6 9 9 9 10 10 11 13 14 15 16 16 17 17 16 16 17 17 16 16 16 16 16 16 15 14 14 14 14 13 12 12 12 12 11 12 11 11 10 12 13 12
6 7 9 11 9 9 10 11 12 14 15 16 16 16 16 16 16 17 17 17 16 16 16 15 15 15 14 14 14 13 13 12 11 10 8 9 10 12 11 11 12 12 11
7 8 11 11 9 9 10 11 12 14 15 16 16 16 16 17 16 16 17 17 16 15 15 15 14 14 14 14 13 13 12 11 9 7 7 8 9 11 11 11 11 11 11
7 8 11 10 9 9 10 11 12 14 15 15 15 16 16 17 17 17 16 16 15 15 14 14 14 14 14 13 13 12 12 10 9 7 7 7 8 11 10 11 11 11 10
7 8 11 11 9 9 10 11 12 13 15 14 14 15 15 16 17 17 16 16 15 15 14 13 13 13 13 12 12 11 10 7 4 7 7 6 9 10 10 10 10 10 9
7 8 10 11 10 9 10 11 12 13 13 13 14 15 15 15 15 16 15 15 15 14 13 13 13 12 12 11 10 10 8 5 5 6 6 7 10 8 9 9 9 9 9
7 8 8 9 10 10 9 10 11 12 12 12 13 14 15 15 15 15 15 14 14 14 13 12 12 11 11 10 9 8 6 3 3 4 5 6 9 8 8 8 8 8 8
6 7 7 7 8 8 9 10 10 10 11 11 12 14 15 16 15 15 14 13 14 13 13 12 11 10 10 9 8 8 6 6 4 5 4 8 9 8 8 8 8 7 7
6 5 6 7 7 7 7 9 9 10 10 10 11 13 12 10 11 11 13 13 13 13 12 11 11 10 9 9 8 7 6 3 4 3 4 10 8 8 8 8 8 8 7
7 6 5 5 6 7 6 6 5 6 7 7 7 8 7 7 6 8 12 12 12 12 12 11 10 10 8 6 8 8 3 3 3 3 5 9 7 7 7 8 8 8 7
7 6 6 5 5 5 5 4 4 3 4 6 7 7 5 5 5 6 5 8 8 10 7 9 9 6 5 4 3 3 3 2 2 2 6 9 7 7 7 8 8 9 9
6 6 5 5 5 5 4 4 4 4 4 4 6 6 5 4 4 5 4 4 5 4 5 4 3 4 3 4 3 3 3 2 2 1 5 8 7 7 8 8 9 9 9
6 6 5 4 5 5 4 3 4 4 4 5 5 5 5 4 4 5 4 4 4 4 5 4 4 4 3 4 3 3 2 2 2 2 4 9 8 8 9 9 9 10 10
6 6 6 5 5 5 4 3 3 4 4 4 4 5 5 4 4 4 5 4 4 4 4 3 4 4 3 3 3 3 3 3 3 3 3 7 10 10 10 10 10 11 11
7 6 6 6 6 5 5 4 3 4 5 4 4 5 5 5 5 5 4 4 4 4 5 4 4 3 3 3 3 3 3 3 3 4 4 3 6 10 11 10 10 10 11
7 7 6 6 7 6 4 4 3 3 4 4 4 5 5 5 5 4 4 4 4 4 4 4 4 3 3 3 2 3 2 3 4 4 4 4 4 4 9 11 10 10 11
8 8 7 6 6 6 6 4 4 3 3 4 4 4 5 6 6 5 4 4 5 4 4 4 3 3 3 2 2 3 3 3 3 5 4 5 4 4 4 9 11 10 11
8 8 8 8 7 6 6 5 4 4 4 4 4 4 5 5 6 5 5 6 5 4 4 3 3 3 3 3 3 2 3 3 3 3 4 4 4 5 5 4 6 9 12
9 9 9 8 8 7 6 6 6 5 5 4 5 6 6 6 6 6 5 6 5 4 4 5 4 5 4 3 3 3 4 4 4 3 3 3 4 4 4 4 5 4 6
11 10 10 9 9 9 6 5 4 4 4 4 4 5 6 6 6 6 5 5 5 4 5 5 5 4 3 3 3 3 3 4 4 3 3 4 4 4 5 5 5 5 5
11 11 9 10 9 9 8 6 5 5 4 5 6 5 6 7 7 6 6 5 5 5 5 5 5 6 4 4 4 3 3 2 1 3 3 3 3 3 4 3 5 5 6
11 11 10 10 9 9 9 8 9 7 6 6 5 5 6 7 7 7 7 6 6 5 5 6 6 5 5 4 4 4 4 3 3 2 3 3 3 4 4 4 4 5 5
11 10 10 10 10 9 9 9 9 7 6 5 5 6 6 6 7 7 7 6 6 5 5 5 4 5 5 5 4 4 4 4 5 4 3 2 3 3 3 4 4 3 4
10 10 10 10 10 10 10 10 9 8 7 6 7 6 6 6 6 8 8 7 7 6 6 6 5 6 5 5 5 4 4 4 4 4 5 4 3 2 2 3 4 3 3
Wind_Direction
72 88 107 115 115 120 126 132 137 138 138 138 137 133 132 132 131 130 130 129 129 130 130 131 131 132 130 128 126 124 122 121 122 120 120 118 119 120 121 126 134 115 116
79 102 115 110 110 115 122 130 135 137 138 138 137 135 136 135 135 133 131 129 129 130 131 132 132 132 129 126 125 124 124 125 124 124 127 124 122 122 123 122 102 110 123
79 102 117 108 109 112 117 124 130 135 137 139 138 138 137 137 138 136 133 129 128 129 129 131 133 131 129 127 125 125 125 125 126 134 148 134 124 125 124 118 111 122 126
84 94 102 106 109 112 114 119 127 132 135 139 141 140 138 140 141 138 134 132 131 132 131 130 132 132 130 128 127 127 127 127 133 159 152 124 127 127 130 127 127 130 129
87 92 99 105 109 113 114 118 126 132 135 138 139 140 140 142 140 137 136 134 134 133 132 131 131 131 131 129 130 129 129 131 147 175 112 114 116 127 133 133 134 134 134
93 97 101 104 105 111 114 118 125 133 135 137 138 139 140 139 138 137 134 133 133 132 131 129 127 126 128 129 130 130 130 141 176 127 115 121 120 132 137 138 138 138 137
97 98 101 103 102 106 112 116 121 128 133 136 138 140 139 138 139 137 135 134 132 131 133 132 128 128 129 129 130 130 133 156 154 120 125 123 113 132 142 141 142 143 144
99 103 106 110 102 102 110 114 118 124 131 136 139 140 140 141 139 138 138 137 136 134 133 132 128 127 127 127 127 130 138 180 143 130 132 120 119 139 145 148 149 151 151
94 99 103 114 118 114 109 110 116 124 132 135 137 140 141 140 141 140 141 141 140 138 137 135 131 129 130 130 133 138 148 200 160 131 136 121 129 145 152 157 156 157 160
91 95 105 108 112 120 120 117 116 120 129 133 136 140 142 144 143 145 145 143 143 142 140 139 134 132 132 135 138 143 159 203 161 146 137 122 141 158 165 165 165 169 173
109 104 103 108 113 116 116 121 127 128 130 140 141 141 146 146 143 150 141 144 146 146 144 142 141 141 145 147 149 156 184 192 148 138 119 121 154 170 176 178 176 178 182
121 114 107 111 118 122 121 124 128 131 133 136 133 140 142 135 139 140 138 150 149 149 150 150 152 161 178 157 156 181 190 165 164 151 121 136 165 179 185 190 189 189 188
126 121 122 117 117 124 127 126 120 123 128 131 132 136 135 141 146 144 145 153 156 159 158 154 169 173 166 146 168 179 165 185 178 167 134 151 177 190 193 195 195 195 194
131 130 123 127 128 124 121 123 134 132 134 135 136 146 141 143 147 135 141 146 152 150 150 160 158 150 152 162 185 181 182 201 196 179 138 161 186 200 203 203 202 201 199
144 141 135 129 128 130 131 143 138 137 137 135 135 141 149 149 146 140 141 147 155 148 156 160 153 152 165 182 193 185 196 199 210 214 156 171 190 205 210 208 208 210 208
162 156 151 152 147 147 148 148 143 143 141 140 143 145 154 147 141 148 151 151 152 152 150 156 157 166 182 183 199 200 215 219 201 221 206 180 191 202 209 211 213 215 214
172 170 164 165 158 162 161 156 146 145 145 148 145 149 158 157 151 158 153 160 153 151 156 168 169 179 187 189 203 216 225 234 223 225 227 216 193 195 204 211 214 215 216
175 174 177 175 165 171 170 165 154 148 144 152 159 157 163 162 167 171 165 165 159 169 174 172 187 185 189 201 208 230 230 230 229 230 227 219 219 206 197 204 213 216 219
182 178 179 183 176 175 169 170 165 156 162 166 169 168 165 174 178 183 175 164 178 181 184 192 175 194 194 202 215 221 236 239 231 231 230 228 219 225 218 185 202 214 221
186 186 184 183 181 179 176 174 178 173 177 179 178 175 178 184 185 189 181 180 194 188 189 194 182 200 212 216 237 234 241 237 230 230 233 221 216 223 229 216 204 206 214
187 189 190 189 180 184 184 186 183 180 182 182 185 179 188 195 188 195 194 177 197 195 201 197 196 197 210 208 223 235 232 222 217 213 227 234 218 221 224 224 233 233 204
190 191 191 191 186 190 185 189 192 185 189 184 187 179 195 196 194 190 195 195 192 193 201 206 209 221 218 208 231 240 232 205 199 204 205 214 229 227 225 220 225 230 252
193 195 195 193 190 192 185 187 183 182 196 185 189 188 194 196 198 203 196 203 198 206 197 207 214 221 225 220 225 245 254 243 226 181 209 214 222 237 242 238 233 230 235
194 193 194 192 192 191 191 199 198 197 198 192 192 184 187 194 199 199 203 203 208 214 200 213 210 221 228 229 216 235 270 307 273 231 212 210 217 227 242 251 245 229 233
190 188 188 189 192 193 198 200 205 208 203 195 193 183 195 195 202 206 205 206 209 217 214 224 215 229 229 238 236 227 229 235 249 264 262 250 240 234 233 243 249 246 239
187 186 183 183 190 194 198 202 204 205 205 201 199 195 201 200 202 205 207 209 214 220 215 220 222 224 238 244 251 245 241 242 245 250 261 261 262 259 256 257 257 251 241